Regional Weather Roundup
Issued by NWS Charleston, WV

Home | Current Version | Previous Version | Graphics & Text | Print | Product List | Glossary On
Versions: 1 2 3 4 5 6 7 8 9 10 11 12 13 14 15 16 17 18 19 20 21 22 23 24 25 26 27 28 29 30 31 32 33 34 35 36 37 38 39 40 41 42 43 44 45 46 47 48 49 50
000
ASUS41 KRLX 240210
RWRRLX
West Virginia Regional Weather Roundup
National Weather Service Charleston WV
Issued by National Weather Service Pittsburgh PA
1000 PM EDT TUE AUG 23 2016

Note: "fair" indicates few or no clouds below 12,000 feet with no
significant weather and/or obstructions to visibility.

WVZ003-240300-
Northern Panhandle of West Virginia

CITY           SKY/WX    TMP DP  RH WIND       PRES   REMARKS
WHEELING       CLEAR     70  59  68 CALM      30.27R
$$

WVZ009-240300-
Northwest West Virginia

CITY           SKY/WX    TMP DP  RH WIND       PRES   REMARKS
PARKERSBURG    CLEAR     66  61  84 CALM      30.28R
$$

WVZ006-240300-
Western West Virginia

CITY           SKY/WX    TMP DP  RH WIND       PRES   REMARKS
HUNTINGTON     MOCLDY    69  64  84 CALM      30.24
$$

WVZ015-240300-
West Central West Virginia

CITY           SKY/WX    TMP DP  RH WIND       PRES   REMARKS
CHARLESTON     CLOUDY    69  65  86 CALM      30.26R
$$

WVZ031-240300-
North Central West Virginia

CITY           SKY/WX    TMP DP  RH WIND       PRES   REMARKS
CLARKSBURG     CLEAR     67  62  84 CALM      30.28R
MORGANTOWN     CLEAR     69  61  75 CALM      30.29R
$$

WVZ035-042-240300-
South Central West Virginia

CITY           SKY/WX    TMP DP  RH WIND       PRES   REMARKS
BECKLEY        CLOUDY    68  60  75 S7        30.35
BLUEFIELD      PTCLDY    70  58  65 S7        30.37R
$$

WVZ045-240300-
Greenbrier Valley of West Virginia

CITY           SKY/WX    TMP DP  RH WIND       PRES   REMARKS
LEWISBURG      CLEAR     65  61  86 CALM      30.35R
$$

WVZ047-240300-
Northern Mountains of West Virginia

CITY           SKY/WX    TMP DP  RH WIND       PRES   REMARKS
ELKINS         CLEAR     63  60  90 CALM      30.33
$$

WVZ052-240300-
Eastern Panhandle of West Virginia

CITY           SKY/WX    TMP DP  RH WIND       PRES   REMARKS
MARTINSBURG    CLEAR     67  63  87 CALM      30.28R
PETERSBURG     CLEAR     67  65  94 CALM      30.29R
$$




USA.gov is the U.S. government's official web portal to all federal, state and local government web resources and services.